User: anonymous   Login
Location: Gradaro
(45.0833°N, 10.8833°E)
Time: 07:35:13
(UTC+00:00)
Language:

ARGOS Delta rocket - Orbit

View from above orbital plane
View from above orbital plane
View from above satellite
View from above satellite

Ground track
Ground track

The orbit data is extracted from the following two-line orbital elements,

1 25637U 99008D   21059.16770056  .00000042  00000-0  18468-4 0  9995
2 25637  96.4697  21.7065 0140938 299.0325  70.0973 14.46706828161079
Epoch (UTC): 28 February 2021 04:01:29
Eccentricity: 0.0140938
inclination: 96.4697°
perigee height: 636 km
apogee height: 836 km
right ascension of ascending node: 21.7065°
argument of perigee: 299.0325°
revolutions per day: 14.46706828
mean anomaly at epoch: 70.0973°
orbit number at epoch: 16107

The dashed part of the orbit path shows where the satellite is in the earth's shadow,  

DLR